[[[{"header":{"parameterUnit":"kt","parameterCategory":2,"dx":1,"dy":1,"la1":30.253999710083008,"la2":30.299108505249023,"lo1":-89.0895004272461,"lo2":-89.04439544677734,"nx":28,"ny":28,"refTime":"2022-10-07T21:00:00:Z","depth":0,"parameterNumber":1,"parameterNumberName":"U-component_of_WINDS"},"data":[-2.0172,-2.0229,-2.0216,-2.0275,-2.0273,-2.0311,-2.0321,-2.0332,-2.0337,-2.038,-2.0403,-2.0396,-2.0396,-2.042,-2.0444,-2.044,-2.0452,-2.048,-2.0472,-2.0355,-2.0339,-2.0323,-2.0309,-2.0482,-2.0482,-2.0595,-2.0596,-2.0597,-2.0087,-2.0086,-2.0114,-2.0132,-2.0155,-2.012,-2.0132,-2.0153,-2.0188,-2.0195,-2.0217,-2.0254,-2.0281,-2.0272,-2.0296,-2.0322,-2.0308,-2.0329,-2.0329,-2.033,-2.0204,-2.019,-2.0341,-2.0341,-2.0341,-2.0341,-2.0341,-2.0341,-1.9928,-1.9962,-1.9967,-1.9996,-2.0002,-2.0014,-2.0044,-2.0035,-2.0062,-2.0086,-2.0066,-2.0105,-2.011,-2.0133,-2.0138,-2.0168,-2.0141,-2.0162,-2.0168,-2.0174,-2.0183,-2.0025,-2.0171,-2.017,-2.017,-2.017,-2.0169,0,-1.9809,-1.9797,-1.9822,-1.9844,-1.9865,-1.9881,-1.9893,-1.9911,-1.9881,-1.9904,-1.9937,-1.9953,-1.9986,-2.0015,-2.0035,-2.0036,-2.0004,-1.9998,-2.0013,-2.0025,-2.0033,-2.0031,-1.9829,-1.9995,-1.9993,-1.9992,-1.9991,-1.9991,-1.965,-1.9691,-1.969,-1.9709,-1.9713,-1.9745,-1.9762,-1.9732,-1.9751,-1.9761,-1.9793,-1.9821,-1.9843,-1.9897,-1.9886,-1.9911,-1.9896,-1.9961,-1.99,-1.9908,-1.9899,-1.9899,-1.9903,-1.9974,-1.9976,-1.9978,-1.998,0,-1.9562,-1.9543,-1.9602,-1.9597,-1.9597,-1.9641,-1.9636,-1.9669,-1.9657,-1.97,-1.9708,-1.969,-1.9722,-1.9701,-1.9734,-1.9722,-1.9795,-1.9778,-1.9793,-1.9789,-1.9847,-1.9843,-2.0033,-2.0057,-1.9875,-1.9877,-1.9878,0,-1.942,-1.9475,-1.9443,-1.9479,-1.9538,-1.9507,-1.9567,-1.9563,-1.9567,-1.9601,-1.956,-1.9592,-1.956,-1.9589,-1.9572,-1.9627,-1.9633,-1.9628,-1.9624,-1.9634,-1.9635,-1.9645,-1.9638,-1.9608,-1.9607,-1.9607,-1.9606,0,-1.9287,-1.9334,-1.9391,-1.9399,-1.9399,-1.9427,-1.9428,-1.9432,-1.9449,-1.9467,-1.9477,-1.95,-1.9514,-1.9532,-1.951,-1.9469,-1.9576,-1.9516,-1.9572,-1.9572,-1.9599,-1.9598,-1.9769,-1.9605,-1.9604,-1.9604,-1.9604,0,-1.9171,-1.919,-1.9275,-1.9275,-1.9289,-1.9326,-1.9347,-1.9374,-1.9382,-1.9374,-1.9387,-1.9359,-1.9404,-1.9346,-1.9409,-1.9363,-1.9378,-1.9377,-1.938,-1.9386,-1.9323,-1.9425,-1.9588,-1.9605,-1.9387,-1.9385,-1.9384,0,-1.9024,-1.9105,-1.908,-1.9162,-1.9197,-1.915,-1.9191,-1.9199,-1.9191,-1.9219,-1.921,-1.9243,-1.9195,-1.9203,-1.9236,-1.9229,-1.9289,-1.9219,-1.9262,-1.9264,-1.9264,-1.9413,-1.9444,-1.9554,-1.936,-1.9363,-1.9364,0,-1.8909,-1.8909,-1.8926,-1.8934,-1.894,-1.8969,-1.9016,-1.9042,-1.9062,-1.9075,-1.9114,-1.9159,-1.9125,-1.9138,-1.9117,-1.9153,-1.9247,-1.9113,-1.9112,-1.9139,-1.9346,-1.9375,-1.9394,-1.9225,-1.9228,-1.923,-1.9346,0,-1.8741,-1.8779,-1.8822,-1.8841,-1.886,-1.891,-1.8889,-1.8911,-1.8889,-1.8881,-1.8937,-1.8939,-1.8966,-1.898,-1.896,-1.9048,-1.9031,-1.8995,-1.8939,-1.9036,-1.9074,-1.9089,-1.8885,-1.8883,-1.8881,-1.888,0,0,-1.8607,-1.8661,-1.8633,-1.8678,-1.8692,-1.8643,-1.8699,-1.8707,-1.8726,-1.8737,-1.8705,-1.8769,-1.8772,-1.8844,-1.8872,-1.8882,-1.8897,-1.8864,-1.899,-1.9002,-1.9013,-1.9054,-1.907,-1.8877,-1.8877,-1.8876,-1.8876,0,-1.8542,-1.8546,-1.8601,-1.8608,-1.8618,-1.8606,-1.8619,-1.8621,-1.8618,-1.8673,-1.8633,-1.8664,-1.8716,-1.8726,-1.8737,-1.8854,-1.8823,-1.8863,-1.8934,-1.8975,-1.899,-1.9002,-1.9045,-1.9061,-1.8872,-1.8872,-1.8873,0,-1.8426,-1.8427,-1.8451,-1.8482,-1.8488,-1.8525,-1.8461,-1.8503,-1.853,-1.8476,-1.8532,-1.853,-1.8541,-1.861,-1.8641,-1.8613,-1.8757,-1.8708,-1.8716,-1.872,-1.8759,-1.8777,-1.8792,-1.8591,-1.859,-1.8589,0,0,-1.8373,-1.8408,-1.8401,-1.8467,-1.8473,-1.8457,-1.8474,-1.8455,-1.8465,-1.847,-1.8468,-1.8479,-1.8509,-1.853,-1.8557,-1.8636,-1.8636,-1.8674,-1.8687,-1.8698,-1.8708,-1.875,-1.8767,-1.8586,-1.8586,-1.8585,0,0,-1.8348,-1.8342,-1.8319,-1.8392,-1.8403,-1.8401,-1.8442,-1.8413,-1.8436,-1.8428,-1.8397,-1.8399,-1.8464,-1.8464,-1.8421,-1.8537,-1.8482,-1.8492,-1.8535,-1.8551,-1.8564,-1.8564,-1.8357,0,0,0,0,0,-1.8272,-1.8343,-1.8322,-1.8331,-1.837,-1.8412,-1.8417,-1.8394,-1.8355,-1.8388,-1.8382,-1.8347,-1.8435,-1.8396,-1.8406,-1.8455,-1.8542,-1.855,-1.8557,-1.8631,-1.8649,-1.8663,0,0,0,0,0,0,-1.8275,-1.8287,-1.832,-1.8321,-1.8329,-1.841,-1.8339,-1.8335,-1.8351,-1.8344,-1.8349,-1.8347,-1.8328,-1.8389,-1.8399,-1.8446,-1.8354,-1.8545,-1.8552,-1.8558,-1.8637,-1.8651,-1.8664,0,0,0,0,0,-1.8278,-1.8287,-1.8356,-1.8319,-1.8327,-1.8313,-1.8337,-1.8332,-1.8345,-1.8335,-1.8332,-1.8326,-1.833,-1.8336,-1.8395,-1.8442,-1.8348,-1.8351,-1.8549,-1.8555,-1.8559,-1.8644,0,0,0,0,0,0,-1.828,-1.8283,-1.8357,-1.8358,-1.8291,-1.8308,-1.8309,-1.833,-1.8334,-1.8332,-1.831,-1.8304,-1.8332,-1.8337,-1.8341,-1.8442,-1.8342,-1.8346,-1.8348,-1.8553,-1.8557,-1.8561,0,0,0,0,0,0,-1.8278,-1.8285,-1.8357,-1.8323,-1.832,-1.8303,-1.8305,-1.8351,-1.8335,-1.8309,-1.8304,-1.8307,-1.8325,-1.8337,-1.8341,-1.8414,-1.8338,-1.8342,-1.8344,-1.8346,-1.8557,-1.856,0,0,0,0,0,0,-1.8281,-1.8286,-1.8323,-1.8321,-1.8318,-1.8331,-1.8344,-1.8385,-1.8306,-1.8309,-1.8298,-1.8294,-1.8327,-1.833,-1.8341,-1.8413,-1.8414,-1.8338,-1.8341,-1.8342,-1.8343,0,0,0,0,0,0,0,-1.8283,-1.825,-1.8349,-1.8318,-1.8316,-1.8371,-1.8371,-1.8372,-1.8305,-1.8302,-1.8299,-1.8296,-1.8319,-1.8323,-1.8327,-1.8412,0,0,-1.8338,-1.834,0,0,0,0,0,0,0,0,-1.8247,-1.8249,-1.8349,-1.8349,-1.8349,-1.8371,-1.8371,-1.8371,-1.8304,-1.8302,-1.8299,-1.8297,-1.832,-1.8323,-1.8326,0,0,0,0,0,0,0,0,0,0,0,0,0,0,0,-1.8349,-1.8349,0,-1.8371,-1.8371,-1.8371,-1.8304,-1.8302,-1.83,-1.8298,-1.8321,-1.8323,-1.8326,0,0,0,0,0,0,0,0,0,0,0,0,0,0,0,0,0,0,0,0,0,0,0,0,0,0,0,0,0,0,0,0,0,0,0,0,0,0,0,0,0,0,0,0,0,0,0,0,0,0,0,0,0,0,0,0,0,0,0,0,0,0,0,0,0,0,0,0,0]}],[{"header":{"parameterUnit":"kt","parameterCategory":2,"dx":1,"dy":1,"la1":30.253999710083008,"la2":30.299108505249023,"lo1":-89.0895004272461,"lo2":-89.04439544677734,"nx":28,"ny":28,"refTime":"2022-10-07T21:00:00:Z","depth":0,"parameterNumber":2,"parameterNumberName":"V-component_of_WINDS"},"data":[-11.6568,-11.6752,-11.676,-11.6971,-11.7011,-11.7155,-11.7207,-11.7274,-11.7327,-11.7494,-11.759,-11.7608,-11.7657,-11.7768,-11.7867,-11.7872,-11.7914,-11.7978,-11.7972,-11.7685,-11.7645,-11.7607,-11.7566,-11.7988,-11.7988,-11.8269,-11.8271,-11.8273,-11.6365,-11.641,-11.6523,-11.6636,-11.6732,-11.6675,-11.6757,-11.6839,-11.6967,-11.7032,-11.7125,-11.727,-11.7382,-11.7407,-11.7513,-11.7594,-11.757,-11.7623,-11.7616,-11.7625,-11.7319,-11.7275,-11.7642,-11.7642,-11.7641,-11.7641,-11.7641,-11.7641,-11.5998,-11.6108,-11.6179,-11.6301,-11.6358,-11.6432,-11.6535,-11.6557,-11.6662,-11.6778,-11.6756,-11.6897,-11.6958,-11.7082,-11.7122,-11.7229,-11.7169,-11.7225,-11.7239,-11.7253,-11.7272,-11.6871,-11.7246,-11.7245,-11.7244,-11.7243,-11.7242,0,-11.573,-11.5727,-11.5834,-11.5944,-11.6032,-11.6115,-11.619,-11.6253,-11.6237,-11.6324,-11.645,-11.6521,-11.6659,-11.6773,-11.6869,-11.6897,-11.6838,-11.6831,-11.687,-11.6884,-11.6886,-11.6888,-11.6391,-11.6819,-11.6815,-11.6812,-11.681,-11.6809,-11.5359,-11.5485,-11.5559,-11.5633,-11.5675,-11.5794,-11.5864,-11.5841,-11.5915,-11.6,-11.6094,-11.6209,-11.6299,-11.6492,-11.6505,-11.6606,-11.6577,-11.6741,-11.659,-11.6601,-11.658,-11.6574,-11.6586,-11.677,-11.6775,-11.6779,-11.6782,0,-11.5151,-11.5155,-11.5349,-11.5406,-11.5424,-11.5555,-11.5601,-11.5705,-11.5711,-11.5854,-11.5886,-11.5892,-11.6011,-11.5998,-11.6128,-11.6117,-11.6328,-11.6297,-11.631,-11.6303,-11.6449,-11.6436,-11.6924,-11.6987,-11.6549,-11.6553,-11.6557,0,-11.4836,-11.4999,-11.4995,-11.5107,-11.5288,-11.526,-11.5438,-11.546,-11.5512,-11.5624,-11.5557,-11.5663,-11.5628,-11.5731,-11.5714,-11.5884,-11.5907,-11.5908,-11.5902,-11.5915,-11.5915,-11.595,-11.5929,-11.588,-11.5878,-11.5875,-11.5873,0,-11.4508,-11.4695,-11.4878,-11.492,-11.4993,-11.5078,-11.5111,-11.5166,-11.5232,-11.5315,-11.5358,-11.5454,-11.5507,-11.5582,-11.556,-11.5459,-11.5766,-11.5622,-11.5767,-11.5768,-11.5834,-11.583,-11.6268,-11.587,-11.587,-11.5869,-11.5868,0,-11.4252,-11.4343,-11.4606,-11.4665,-11.4714,-11.4831,-11.4928,-11.5025,-11.5088,-11.5086,-11.5149,-11.51,-11.5246,-11.5105,-11.5306,-11.5181,-11.5236,-11.525,-11.526,-11.527,-11.5113,-11.5362,-11.578,-11.5823,-11.5284,-11.5279,-11.5274,0,-11.3878,-11.4142,-11.412,-11.4368,-11.4488,-11.4406,-11.4535,-11.4592,-11.46,-11.4699,-11.4705,-11.4816,-11.4708,-11.474,-11.4841,-11.485,-11.5013,-11.4828,-11.4966,-11.4972,-11.4956,-11.534,-11.5406,-11.5691,-11.5212,-11.5218,-11.5223,0,-11.3587,-11.3675,-11.372,-11.3767,-11.3839,-11.3937,-11.4085,-11.419,-11.4258,-11.4326,-11.4449,-11.4602,-11.4527,-11.458,-11.4547,-11.4654,-11.4902,-11.4557,-11.4557,-11.462,-11.5178,-11.5241,-11.5289,-11.4856,-11.4864,-11.487,-11.5173,0,-11.3202,-11.3332,-11.3455,-11.3557,-11.363,-11.3783,-11.377,-11.3848,-11.3813,-11.3816,-11.3993,-11.4029,-11.413,-11.4178,-11.4141,-11.4389,-11.4344,-11.4261,-11.412,-11.4372,-11.4472,-11.4512,-11.3974,-11.397,-11.3966,-11.3963,0,0,-11.2843,-11.3029,-11.2996,-11.3139,-11.3199,-11.3109,-11.3273,-11.3318,-11.3412,-11.3454,-11.3376,-11.3598,-11.3629,-11.3844,-11.3921,-11.3961,-11.4003,-11.3914,-11.4252,-11.4285,-11.4315,-11.4421,-11.4464,-11.3957,-11.3955,-11.3954,-11.3953,0,-11.27,-11.2743,-11.2907,-11.2954,-11.3023,-11.3019,-11.3059,-11.3108,-11.3117,-11.3289,-11.3207,-11.3309,-11.3484,-11.353,-11.3576,-11.3889,-11.3818,-11.392,-11.4096,-11.4217,-11.4254,-11.4287,-11.4399,-11.444,-11.3944,-11.3945,-11.3945,0,-11.2411,-11.2451,-11.2528,-11.266,-11.2702,-11.2824,-11.2676,-11.2809,-11.2898,-11.2784,-11.2955,-11.2972,-11.3029,-11.3233,-11.3323,-11.3254,-11.3652,-11.3521,-11.3543,-11.3552,-11.3667,-11.3712,-11.3752,-11.3228,-11.3225,-11.3223,0,0,-11.2288,-11.2408,-11.2439,-11.2627,-11.266,-11.2655,-11.2716,-11.2687,-11.2743,-11.2766,-11.2785,-11.284,-11.2941,-11.3008,-11.3102,-11.3327,-11.3336,-11.3434,-11.3467,-11.3495,-11.3519,-11.3642,-11.3686,-11.3214,-11.3214,-11.3213,0,0,-11.2227,-11.2273,-11.2227,-11.2445,-11.2505,-11.2543,-11.2657,-11.26,-11.2683,-11.2663,-11.2613,-11.2625,-11.2814,-11.2832,-11.2714,-11.305,-11.2912,-11.2939,-11.3032,-11.3074,-11.3107,-11.3098,-11.2561,0,0,0,0,0,-11.2073,-11.2268,-11.2226,-11.2261,-11.2421,-11.2567,-11.2587,-11.2553,-11.2457,-11.2549,-11.2556,-11.2476,-11.2759,-11.2653,-11.2685,-11.2816,-11.3097,-11.3118,-11.3137,-11.331,-11.3354,-11.3392,0,0,0,0,0,0,-11.2086,-11.2128,-11.2221,-11.2269,-11.2304,-11.256,-11.239,-11.2386,-11.2447,-11.243,-11.2477,-11.2477,-11.2447,-11.2634,-11.2663,-11.2789,-11.2551,-11.3105,-11.3123,-11.3139,-11.3325,-11.3361,-11.3393,0,0,0,0,0,-11.2096,-11.213,-11.2398,-11.2266,-11.2297,-11.2299,-11.2382,-11.2378,-11.2423,-11.2434,-11.2431,-11.2392,-11.2452,-11.2474,-11.2651,-11.2777,-11.2531,-11.2542,-11.3117,-11.3131,-11.3143,-11.3343,0,0,0,0,0,0,-11.2104,-11.2125,-11.2403,-11.2411,-11.2189,-11.2283,-11.2297,-11.2371,-11.2422,-11.2422,-11.2345,-11.2331,-11.2458,-11.2474,-11.2491,-11.2775,-11.2514,-11.2525,-11.2532,-11.3127,-11.3138,-11.3148,0,0,0,0,0,0,-11.2106,-11.2133,-11.2407,-11.2313,-11.2309,-11.227,-11.2282,-11.2425,-11.2424,-11.233,-11.232,-11.2338,-11.2429,-11.2475,-11.2488,-11.2712,-11.2501,-11.2512,-11.2519,-11.2524,-11.3136,-11.3145,0,0,0,0,0,0,-11.2117,-11.2139,-11.231,-11.2308,-11.2304,-11.2391,-11.2394,-11.2559,-11.2349,-11.2329,-11.2328,-11.2319,-11.2432,-11.2445,-11.2486,-11.2706,-11.2711,-11.2501,-11.2509,-11.2514,-11.2517,0,0,0,0,0,0,0,-11.2125,-11.1984,-11.2356,-11.2304,-11.2301,-11.2485,-11.2487,-11.2489,-11.2347,-11.2339,-11.233,-11.2323,-11.2439,-11.2451,-11.2463,-11.27,0,0,-11.25,-11.2505,0,0,0,0,0,0,0,0,-11.1974,-11.1982,-11.2357,-11.2358,-11.236,-11.2485,-11.2487,-11.2489,-11.2345,-11.2339,-11.2332,-11.2326,-11.2442,-11.2452,-11.2461,0,0,0,0,0,0,0,0,0,0,0,0,0,0,0,-11.2357,-11.2358,0,-11.2485,-11.2487,-11.2488,-11.2344,-11.2339,-11.2334,-11.2328,-11.2445,-11.2453,-11.2461,0,0,0,0,0,0,0,0,0,0,0,0,0,0,0,0,0,0,0,0,0,0,0,0,0,0,0,0,0,0,0,0,0,0,0,0,0,0,0,0,0,0,0,0,0,0,0,0,0,0,0,0,0,0,0,0,0,0,0,0,0,0,0,0,0,0,0,0,0]}]]]